| time (UTC) | temp C | wind direction | speed KPH | gust KPH | rain 1hr cm | rain 24hr cm | rain mn cm | humidity % | barometer mb |
| 20260902100109 | 17 | 155 | 0.0 | 1.6 | 0.00 | 0.15 | 0.15 | 98 | 1016.1 |
| 20260902095609 | 17 | 117 | 0.0 | 3.2 | 0.00 | 0.15 | 0.15 | 98 | 1016.0 |
| 20260902095103 | 17 | 113 | 0.0 | 1.6 | 0.00 | 0.15 | 0.15 | 98 | 1016.1 |
| 20260902094558 | 17 | 121 | 0.0 | 9.7 | 0.00 | 0.15 | 0.15 | 98 | 1015.9 |
| 20260902094054 | 17 | 117 | 3.2 | 4.8 | 0.00 | 0.15 | 0.15 | 98 | 1015.8 |
| 20260902093553 | 17 | 136 | 0.0 | 1.6 | 0.00 | 0.15 | 0.15 | 98 | 1015.8 |
| 20260902093048 | 17 | 134 | 0.0 | 3.2 | 0.00 | 0.15 | 0.15 | 98 | 1015.6 |
| 20260902092538 | 17 | 27 | 0.0 | 4.8 | 0.00 | 0.15 | 0.15 | 98 | 1015.1 |
| 20260902092032 | 17 | 115 | 0.0 | 1.6 | 0.00 | 0.15 | 0.15 | 98 | 1014.7 |
| 20260902091528 | 17 | 241 | 1.6 | 4.8 | 0.00 | 0.15 | 0.15 | 98 | 1014.3 |
| 20260902091023 | 17 | 357 | 3.2 | 8.0 | 0.00 | 0.15 | 0.15 | 98 | 1014.5 |
| 20260902090519 | 17 | 284 | 1.6 | 8.0 | 0.00 | 0.15 | 0.15 | 98 | 1014.5 |
| 20260902090018 | 17 | 337 | 3.2 | 12.9 | 0.00 | 0.15 | 0.15 | 98 | 1014.4 |
| 20260902085519 | 17 | 13 | 1.6 | 8.0 | 0.00 | 0.15 | 0.15 | 98 | 1015.0 |
| 20260902085014 | 17 | 113 | 0.0 | 3.2 | 0.00 | 0.15 | 0.15 | 98 | 1015.0 |
| 20260902084510 | 17 | 104 | 0.0 | 0.0 | 0.00 | 0.15 | 0.15 | 98 | 1015.2 |
| 20260902084005 | 18 | 116 | 0.0 | 0.0 | 0.00 | 0.15 | 0.15 | 98 | 1015.5 |
| 20260902083501 | 18 | 4 | 1.6 | 3.2 | 0.00 | 0.15 | 0.15 | 98 | 1015.8 |
| 20260902082955 | 18 | 88 | 0.0 | 3.2 | 0.00 | 0.15 | 0.15 | 98 | 1015.6 |
| 20260902082450 | 18 | 55 | 1.6 | 4.8 | 0.00 | 0.15 | 0.15 | 98 | 1016.2 |
| 20260902081947 | 18 | 296 | 1.6 | 8.0 | 0.00 | 0.15 | 0.15 | 97 | 1015.8 |
| 20260902081443 | 18 | 45 | 0.0 | 4.8 | 0.00 | 0.15 | 0.15 | 97 | 1016.2 |
| 20260902080938 | 18 | 151 | 0.0 | 8.0 | 0.00 | 0.15 | 0.15 | 97 | 1016.3 |
| 20260902080434 | 18 | 121 | 0.0 | 3.2 | 0.00 | 0.15 | 0.15 | 97 | 1016.6 |
| 20260902075933 | 18 | 340 | 0.0 | 3.2 | 0.00 | 0.15 | 0.15 | 97 | 1016.2 |
| 20260902075430 | 18 | 130 | 0.0 | 3.2 | 0.00 | 0.15 | 0.15 | 96 | 1015.9 |
| 20260902074925 | 18 | 72 | 1.6 | 3.2 | 0.18 | 0.15 | 0.15 | 96 | 1015.4 |
| 20260902074420 | 18 | 107 | 0.0 | 3.2 | 0.18 | 0.15 | 0.15 | 96 | 1015.1 |
| 20260902073915 | 18 | 117 | 0.0 | 3.2 | 0.00 | 0.13 | 0.13 | 95 | 1015.6 |
| 20260902073411 | 18 | 110 | 0.0 | 1.6 | 0.13 | 0.13 | 0.13 | 94 | 1016.0 |
| 20260902072907 | 18 | 35 | 1.6 | 1.6 | 0.18 | 0.10 | 0.10 | 93 | 1016.6 |
| 20260902072403 | 19 | 32 | 3.2 | 4.8 | 0.36 | 0.10 | 0.10 | 92 | 1016.9 |
| 20260902071859 | 19 | 325 | 0.0 | 4.8 | 0.18 | 0.08 | 0.08 | 91 | 1017.3 |
| 20260902071358 | 19 | 75 | 1.6 | 4.8 | 0.13 | 0.05 | 0.05 | 90 | 1017.7 |
| 20260902070855 | 20 | 172 | 1.6 | 3.2 | 0.13 | 0.05 | 0.05 | 90 | 1018.0 |
| 20260902070350 | 20 | 77 | 1.6 | 8.0 | 0.18 | 0.03 | 0.03 | 88 | 1018.5 |
| 20260902065848 | 20 | 118 | 3.2 | 12.9 | 0.18 | 0.03 | 0.03 | 87 | 1018.5 |
| 20260902065344 | 20 | 156 | 1.6 | 3.2 | 0.00 | 0.00 | 0.00 | 87 | 1018.9 |
| 20260902064839 | 21 | 150 | 0.0 | 0.0 | 0.00 | 0.00 | 0.00 | 83 | 1018.0 |
| 20260902064335 | 21 | 236 | 0.0 | 0.0 | 0.00 | 0.00 | 0.00 | 79 | 1018.2 |
| 20260902063830 | 22 | 196 | 1.6 | 3.2 | 0.00 | 0.00 | 0.00 | 76 | 1018.2 |
| 20260902063325 | 22 | 227 | 0.0 | 1.6 | 0.00 | 0.00 | 0.00 | 74 | 1018.0 |
| 20260902062819 | 22 | 202 | 0.0 | 1.6 | 0.00 | 0.00 | 0.00 | 71 | 1017.5 |
| 20260902062314 | 22 | 259 | 1.6 | 9.7 | 0.00 | 0.00 | 0.00 | 71 | 1017.0 |
| 20260902061813 | 22 | 258 | 1.6 | 4.8 | 0.00 | 0.00 | 0.00 | 71 | 1016.5 |
| 20260902061309 | 22 | 314 | 1.6 | 3.2 | 0.00 | 0.00 | 0.00 | 72 | 1016.4 |
| 20260902060805 | 22 | 298 | 1.6 | 3.2 | 0.00 | 0.00 | 0.00 | 72 | 1016.0 |
| 20260902060301 | 22 | 295 | 1.6 | 3.2 | 0.00 | 0.00 | 0.00 | 72 | 1016.1 |
| 20260902055755 | 22 | 245 | 0.0 | 0.0 | 0.00 | 0.00 | 0.00 | 73 | 1015.7 |
| 20260902055247 | 22 | 307 | 1.6 | 1.6 | 0.00 | 0.00 | 0.00 | 74 | 1015.7 |
| 20260902054747 | 22 | 254 | 0.0 | 0.0 | 0.00 | 0.00 | 0.00 | 74 | 1016.1 |
| 20260902054242 | 22 | 132 | 0.0 | 1.6 | 0.00 | 0.00 | 0.00 | 73 | 1016.3 |
| 20260902053737 | 22 | 31 | 0.0 | 1.6 | 0.00 | 0.00 | 0.00 | 72 | 1016.3 |
| 20260902053236 | 22 | 57 | 0.0 | 1.6 | 0.00 | 0.00 | 0.00 | 71 | 1016.4 |
| 20260902052731 | 22 | 168 | 0.0 | 0.0 | 0.00 | 0.00 | 0.00 | 70 | 1017.0 |
| 20260902052227 | 22 | 177 | 0.0 | 0.0 | 0.00 | 0.00 | 0.00 | 69 | 1016.8 |
| 20260902051726 | 22 | 230 | 0.0 | 0.0 | 0.00 | 0.00 | 0.00 | 68 | 1016.7 |
| 20260902051220 | 22 | 246 | 0.0 | 3.2 | 0.00 | 0.00 | 0.00 | 68 | 1016.7 |
| 20260902050715 | 22 | 318 | 0.0 | 3.2 | 0.00 | 0.00 | 0.00 | 67 | 1016.6 |
| 20260902050211 | 22 | 167 | 0.0 | 0.0 | 0.00 | 0.00 | 0.00 | 67 | 1016.5 |
| 20260902045711 | 22 | 253 | 1.6 | 1.6 | 0.00 | 0.00 | 0.00 | 66 | 1016.3 |
| 20260902045207 | 23 | 186 | 0.0 | 1.6 | 0.00 | 0.00 | 0.00 | 65 | 1016.3 |
| 20260902044702 | 23 | 313 | 1.6 | 1.6 | 0.00 | 0.00 | 0.00 | 65 | 1016.3 |
| 20260902044158 | 22 | 295 | 1.6 | 3.2 | 0.00 | 0.00 | 0.00 | 66 | 1016.2 |
| 20260902043653 | 22 | 262 | 0.0 | 0.0 | 0.00 | 0.00 | 0.00 | 67 | 1016.3 |
| 20260902043148 | 22 | 240 | 0.0 | 1.6 | 0.00 | 0.00 | 0.00 | 67 | 1016.1 |
| 20260902042647 | 22 | 197 | 0.0 | 0.0 | 0.00 | 0.00 | 0.00 | 67 | 1016.0 |
| 20260902042143 | 22 | 247 | 0.0 | 0.0 | 0.00 | 0.00 | 0.00 | 67 | 1016.0 |
| 20260902041642 | 22 | 260 | 0.0 | 0.0 | 0.00 | 0.00 | 0.00 | 66 | 1016.3 |
| 20260902041137 | 22 | 266 | 0.0 | 3.2 | 0.00 | 0.00 | 0.00 | 66 | 1016.3 |
| 20260902040636 | 22 | 159 | 0.0 | 1.6 | 0.00 | 0.00 | 0.00 | 66 | 1015.9 |
| 20260902040132 | 22 | 219 | 0.0 | 4.8 | 0.00 | 0.00 | 0.00 | 68 | 1015.8 |
| 20260902035630 | 22 | 298 | 1.6 | 3.2 | 0.00 | 0.00 | 0.00 | 66 | 1015.7 |
| 20260902035126 | 22 | 271 | 1.6 | 1.6 | 0.00 | 0.00 | 0.00 | 67 | 1016.4 |
| 20260902034625 | 22 | 245 | 0.0 | 0.0 | 0.00 | 0.00 | 0.00 | 66 | 1016.2 |
| 20260902034119 | 22 | 231 | 0.0 | 0.0 | 0.00 | 0.00 | 0.00 | 66 | 1016.6 |
| 20260902033618 | 23 | 235 | 0.0 | 0.0 | 0.00 | 0.00 | 0.00 | 67 | 1016.6 |
| 20260902033114 | 23 | 257 | 0.0 | 1.6 | 0.00 | 0.00 | 0.00 | 64 | 1016.7 |
| 20260902032612 | 23 | 241 | 0.0 | 0.0 | 0.00 | 0.00 | 0.00 | 65 | 1016.8 |
| 20260902032107 | 23 | 232 | 0.0 | 0.0 | 0.00 | 0.00 | 0.00 | 66 | 1016.8 |
| 20260902031601 | 23 | 342 | 0.0 | 3.2 | 0.00 | 0.00 | 0.00 | 65 | 1016.9 |
| 20260902031057 | 23 | 266 | 0.0 | 1.6 | 0.00 | 0.00 | 0.00 | 67 | 1016.7 |
| 20260902030552 | 23 | 250 | 0.0 | 0.0 | 0.00 | 0.00 | 0.00 | 67 | 1016.8 |
| 20260902030052 | 23 | 279 | 1.6 | 1.6 | 0.00 | 0.00 | 0.00 | 66 | 1016.5 |
| 20260902025552 | 23 | 244 | 0.0 | 0.0 | 0.00 | 0.00 | 0.00 | 66 | 1016.6 |
| 20260902025047 | 23 | 244 | 0.0 | 0.0 | 0.00 | 0.00 | 0.00 | 65 | 1016.5 |
| 20260902024543 | 23 | 245 | 0.0 | 0.0 | 0.00 | 0.00 | 0.00 | 65 | 1016.6 |
| 20260902024043 | 23 | 252 | 0.0 | 0.0 | 0.00 | 0.00 | 0.00 | 65 | 1016.3 |
| 20260902023538 | 23 | 201 | 0.0 | 0.0 | 0.00 | 0.00 | 0.00 | 66 | 1016.4 |
| 20260902023033 | 23 | 282 | 0.0 | 0.0 | 0.00 | 0.00 | 0.00 | 64 | 1016.5 |
| 20260902022527 | 23 | 211 | 0.0 | 0.0 | 0.00 | 0.00 | 0.00 | 65 | 1016.4 |
| 20260902022023 | 23 | 211 | 0.0 | 0.0 | 0.00 | 0.00 | 0.00 | 64 | 1016.5 |
| 20260902021519 | 23 | 211 | 0.0 | 0.0 | 0.00 | 0.00 | 0.00 | 63 | 1016.5 |
| 20260902021014 | 23 | 209 | 0.0 | 0.0 | 0.00 | 0.00 | 0.00 | 64 | 1016.5 |
| 20260902020509 | 23 | 221 | 0.0 | 0.0 | 0.00 | 0.00 | 0.00 | 65 | 1016.5 |
| 20260902020005 | 24 | 228 | 0.0 | 0.0 | 0.00 | 0.00 | 0.00 | 64 | 1016.6 |
| 20260902015501 | 24 | 244 | 0.0 | 0.0 | 0.00 | 0.00 | 0.00 | 65 | 1016.5 |
| 20260902014956 | 24 | 221 | 0.0 | 0.0 | 0.00 | 0.00 | 0.00 | 65 | 1016.2 |
| 20260902014452 | 24 | 196 | 0.0 | 0.0 | 0.00 | 0.00 | 0.00 | 64 | 1016.3 |
| 20260902013952 | 25 | 195 | 0.0 | 0.0 | 0.00 | 0.00 | 0.00 | 63 | 1016.2 |
| 20260902013447 | 25 | 211 | 0.0 | 0.0 | 0.00 | 0.00 | 0.00 | 63 | 1016.2 |
| 20260902012942 | 25 | 210 | 0.0 | 0.0 | 0.00 | 0.00 | 0.00 | 63 | 1016.1 |
| 20260902012438 | 25 | 216 | 0.0 | 0.0 | 0.00 | 0.00 | 0.00 | 63 | 1016.2 |
| 20260902011933 | 25 | 216 | 0.0 | 0.0 | 0.00 | 0.00 | 0.00 | 62 | 1016.1 |
| 20260902011428 | 25 | 191 | 0.0 | 0.0 | 0.00 | 0.00 | 0.00 | 62 | 1016.2 |
| 20260902010928 | 25 | 216 | 0.0 | 0.0 | 0.00 | 0.00 | 0.00 | 62 | 1015.9 |
| 20260902010423 | 25 | 208 | 0.0 | 0.0 | 0.00 | 0.00 | 0.00 | 62 | 1015.9 |
| 20260902005922 | 26 | 202 | 0.0 | 0.0 | 0.00 | 0.00 | 0.00 | 61 | 1016.0 |
| 20260902005421 | 26 | 220 | 0.0 | 0.0 | 0.00 | 0.00 | 0.00 | 60 | 1015.9 |
| 20260902004918 | 26 | 220 | 0.0 | 0.0 | 0.00 | 0.00 | 0.00 | 61 | 1016.0 |
| 20260902004417 | 26 | 219 | 0.0 | 0.0 | 0.00 | 0.00 | 0.00 | 63 | 1016.0 |
| 20260902003912 | 26 | 215 | 0.0 | 0.0 | 0.00 | 0.00 | 0.00 | 64 | 1016.0 |
| 20260902003407 | 26 | 217 | 0.0 | 0.0 | 0.00 | 0.00 | 0.00 | 66 | 1016.1 |
| 20260902002903 | 26 | 221 | 0.0 | 0.0 | 0.00 | 0.00 | 0.00 | 66 | 1016.0 |
| 20260902002403 | 26 | 206 | 0.0 | 0.0 | 0.00 | 0.00 | 0.00 | 64 | 1016.1 |
| 20260902001857 | 27 | 213 | 0.0 | 1.6 | 0.00 | 0.00 | 0.00 | 63 | 1016.0 |
| 20260902001352 | 27 | 217 | 0.0 | 0.0 | 0.00 | 0.00 | 0.00 | 63 | 1016.1 |
| 20260902000847 | 27 | 205 | 0.0 | 0.0 | 0.00 | 0.00 | 0.00 | 62 | 1016.1 |
| 20260902000344 | 27 | 233 | 0.0 | 1.6 | 0.00 | 0.00 | 0.00 | 62 | 1016.4 |
| 20260901235837 | 27 | 198 | 0.0 | 1.6 | 0.00 | 0.00 | 0.00 | 61 | 1016.1 |
| 20260901235337 | 27 | 232 | 0.0 | 1.6 | 0.00 | 0.00 | 0.00 | 61 | 1016.2 |
| 20260901234832 | 27 | 186 | 1.6 | 1.6 | 0.00 | 0.00 | 0.00 | 60 | 1016.2 |
| 20260901234326 | 27 | 200 | 0.0 | 1.6 | 0.00 | 0.00 | 0.00 | 60 | 1016.3 |
| 20260901233822 | 27 | 217 | 0.0 | 0.0 | 0.00 | 0.00 | 0.00 | 60 | 1016.0 |
| 20260901233317 | 27 | 201 | 0.0 | 1.6 | 0.00 | 0.00 | 0.00 | 59 | 1016.2 |
| 20260901232813 | 28 | 218 | 3.2 | 4.8 | 0.00 | 0.00 | 0.00 | 58 | 1016.4 |
| 20260901232307 | 28 | 213 | 3.2 | 4.8 | 0.00 | 0.00 | 0.00 | 58 | 1016.3 |
| 20260901231804 | 28 | 246 | 3.2 | 4.8 | 0.00 | 0.00 | 0.00 | 57 | 1016.3 |
| 20260901231300 | 28 | 241 | 4.8 | 8.0 | 0.00 | 0.00 | 0.00 | 57 | 1016.3 |
| 20260901230756 | 28 | 189 | 1.6 | 3.2 | 0.00 | 0.00 | 0.00 | 56 | 1015.9 |
| 20260901230255 | 28 | 240 | 1.6 | 3.2 | 0.00 | 0.00 | 0.00 | 56 | 1016.0 |
| 20260901225750 | 28 | 193 | 3.2 | 3.2 | 0.00 | 0.00 | 0.00 | 55 | 1016.1 |
| 20260901225244 | 28 | 175 | 0.0 | 4.8 | 0.00 | 0.00 | 0.00 | 56 | 1016.2 |
| 20260901224741 | 28 | 242 | 1.6 | 3.2 | 0.00 | 0.00 | 0.00 | 56 | 1016.1 |
| 20260901224236 | 28 | 225 | 3.2 | 4.8 | 0.00 | 0.00 | 0.00 | 55 | 1016.1 |
| 20260901223732 | 28 | 236 | 1.6 | 4.8 | 0.00 | 0.00 | 0.00 | 55 | 1016.1 |
| 20260901223227 | 29 | 204 | 1.6 | 4.8 | 0.00 | 0.00 | 0.00 | 55 | 1016.3 |
| 20260901222723 | 29 | 179 | 1.6 | 3.2 | 0.00 | 0.00 | 0.00 | 54 | 1016.1 |
| 20260901222219 | 29 | 191 | 4.8 | 8.0 | 0.00 | 0.00 | 0.00 | 52 | 1016.1 |
| 20260901221715 | 29 | 271 | 4.8 | 4.8 | 0.00 | 0.00 | 0.00 | 50 | 1016.2 |
| 20260901221211 | 29 | 167 | 4.8 | 4.8 | 0.00 | 0.00 | 0.00 | 49 | 1016.2 |
| 20260901220709 | 29 | 245 | 8.0 | 9.7 | 0.00 | 0.00 | 0.00 | 48 | 1016.0 |
| 20260901220209 | 29 | 213 | 4.8 | 8.0 | 0.00 | 0.00 | 0.00 | 48 | 1016.0 |
| 20260901215708 | 29 | 215 | 1.6 | 4.8 | 0.00 | 0.00 | 0.00 | 49 | 1016.2 |
| 20260901215202 | 30 | 228 | 3.2 | 4.8 | 0.00 | 0.00 | 0.00 | 47 | 1016.0 |
| 20260901214700 | 30 | 200 | 1.6 | 9.7 | 0.00 | 0.00 | 0.00 | 47 | 1015.8 |
| 20260901214154 | 30 | 165 | 6.4 | 11.3 | 0.00 | 0.00 | 0.00 | 44 | 1016.0 |
| 20260901213649 | 30 | 238 | 3.2 | 4.8 | 0.00 | 0.00 | 0.00 | 43 | 1016.0 |
| 20260901213144 | 30 | 196 | 0.0 | 8.0 | 0.00 | 0.00 | 0.00 | 42 | 1015.8 |
| 20260901212643 | 30 | 160 | 4.8 | 11.3 | 0.00 | 0.00 | 0.00 | 43 | 1016.0 |
| 20260901212139 | 30 | 206 | 4.8 | 9.7 | 0.00 | 0.00 | 0.00 | 43 | 1015.6 |
| 20260901211634 | 30 | 172 | 1.6 | 9.7 | 0.00 | 0.00 | 0.00 | 45 | 1015.8 |
| 20260901211131 | 30 | 178 | 1.6 | 4.8 | 0.00 | 0.00 | 0.00 | 45 | 1015.9 |
| 20260901210626 | 30 | 214 | 0.0 | 3.2 | 0.00 | 0.00 | 0.00 | 44 | 1015.7 |
| 20260901210122 | 30 | 197 | 1.6 | 8.0 | 0.00 | 0.00 | 0.00 | 45 | 1015.9 |
| 20260901205617 | 30 | 167 | 1.6 | 4.8 | 0.00 | 0.00 | 0.00 | 46 | 1015.8 |
| 20260901205111 | 30 | 232 | 4.8 | 11.3 | 0.00 | 0.00 | 0.00 | 44 | 1016.1 |
| 20260901204607 | 31 | 215 | 3.2 | 9.7 | 0.00 | 0.00 | 0.00 | 43 | 1016.2 |
| 20260901204102 | 31 | 183 | 0.0 | 8.0 | 0.00 | 0.00 | 0.00 | 44 | 1016.1 |
| 20260901203602 | 31 | 198 | 6.4 | 11.3 | 0.00 | 0.00 | 0.00 | 44 | 1016.2 |
| 20260901203057 | 31 | 227 | 1.6 | 9.7 | 0.00 | 0.00 | 0.00 | 43 | 1016.4 |
| 20260901202556 | 31 | 204 | 4.8 | 11.3 | 0.00 | 0.00 | 0.00 | 43 | 1016.4 |
| 20260901202053 | 31 | 168 | 3.2 | 9.7 | 0.00 | 0.00 | 0.00 | 44 | 1016.2 |
| 20260901201548 | 31 | 222 | 6.4 | 9.7 | 0.00 | 0.00 | 0.00 | 44 | 1016.1 |
| 20260901201047 | 30 | 175 | 0.0 | 3.2 | 0.00 | 0.00 | 0.00 | 46 | 1016.2 |
| 20260901200547 | 30 | 266 | 8.0 | 9.7 | 0.00 | 0.00 | 0.00 | 44 | 1016.4 |
| 20260901200042 | 30 | 131 | 1.6 | 8.0 | 0.00 | 0.00 | 0.00 | 45 | 1016.3 |
| 20260901195539 | 30 | 164 | 0.0 | 4.8 | 0.00 | 0.00 | 0.00 | 47 | 1016.5 |
| 20260901195034 | 30 | 169 | 3.2 | 4.8 | 0.00 | 0.00 | 0.00 | 46 | 1016.4 |
| 20260901194529 | 30 | 197 | 1.6 | 4.8 | 0.00 | 0.00 | 0.00 | 44 | 1016.2 |
| 20260901194025 | 31 | 198 | 0.0 | 3.2 | 0.00 | 0.00 | 0.00 | 45 | 1016.5 |
| 20260901193524 | 31 | 118 | 3.2 | 3.2 | 0.00 | 0.00 | 0.00 | 44 | 1016.3 |
| 20260901193020 | 30 | 223 | 1.6 | 3.2 | 0.00 | 0.00 | 0.00 | 46 | 1016.4 |
| 20260901192514 | 30 | 235 | 4.8 | 4.8 | 0.00 | 0.00 | 0.00 | 46 | 1016.7 |
| 20260901192011 | 30 | 205 | 0.0 | 9.7 | 0.00 | 0.00 | 0.00 | 47 | 1016.7 |
| 20260901191506 | 30 | 133 | 3.2 | 4.8 | 0.00 | 0.00 | 0.00 | 46 | 1016.7 |
| 20260901191002 | 30 | 195 | 3.2 | 8.0 | 0.00 | 0.00 | 0.00 | 45 | 1016.7 |
| 20260901190457 | 30 | 165 | 0.0 | 3.2 | 0.00 | 0.00 | 0.00 | 47 | 1016.5 |
| 20260901185955 | 31 | 138 | 1.6 | 9.7 | 0.00 | 0.00 | 0.00 | 46 | 1016.5 |
| 20260901185449 | 31 | 226 | 1.6 | 9.7 | 0.00 | 0.00 | 0.00 | 45 | 1016.4 |
| 20260901184949 | 31 | 173 | 1.6 | 3.2 | 0.00 | 0.00 | 0.00 | 46 | 1016.6 |
| 20260901184444 | 31 | 186 | 1.6 | 8.0 | 0.00 | 0.00 | 0.00 | 46 | 1016.5 |
| 20260901183939 | 31 | 194 | 6.4 | 9.7 | 0.00 | 0.00 | 0.00 | 47 | 1016.8 |
| 20260901183439 | 30 | 311 | 1.6 | 4.8 | 0.00 | 0.00 | 0.00 | 48 | 1016.8 |
| 20260901182935 | 30 | 177 | 6.4 | 8.0 | 0.00 | 0.00 | 0.00 | 46 | 1017.0 |
| 20260901182431 | 30 | 265 | 0.0 | 4.8 | 0.00 | 0.00 | 0.00 | 49 | 1016.8 |
| 20260901181925 | 30 | 138 | 0.0 | 1.6 | 0.00 | 0.00 | 0.00 | 50 | 1017.0 |
| 20260901181420 | 30 | 235 | 6.4 | 12.9 | 0.00 | 0.00 | 0.00 | 49 | 1017.0 |
| 20260901180919 | 30 | 248 | 3.2 | 8.0 | 0.00 | 0.00 | 0.00 | 51 | 1017.2 |
| 20260901180418 | 30 | 121 | 1.6 | 8.0 | 0.00 | 0.00 | 0.00 | 50 | 1017.2 |
| 20260901175917 | 30 | 181 | 4.8 | 4.8 | 0.00 | 0.00 | 0.00 | 50 | 1017.3 |
| 20260901175412 | 29 | 174 | 1.6 | 3.2 | 0.00 | 0.00 | 0.00 | 52 | 1017.5 |
| 20260901174907 | 30 | 163 | 1.6 | 1.6 | 0.00 | 0.00 | 0.00 | 52 | 1017.3 |
| 20260901174403 | 30 | 140 | 1.6 | 8.0 | 0.00 | 0.00 | 0.00 | 51 | 1017.5 |
| 20260901173858 | 30 | 173 | 1.6 | 3.2 | 0.00 | 0.00 | 0.00 | 52 | 1017.6 |
| 20260901173353 | 30 | 124 | 0.0 | 3.2 | 0.00 | 0.00 | 0.00 | 53 | 1017.4 |
| 20260901172849 | 30 | 165 | 3.2 | 8.0 | 0.00 | 0.00 | 0.00 | 52 | 1017.5 |
| 20260901172349 | 29 | 134 | 1.6 | 8.0 | 0.00 | 0.00 | 0.00 | 53 | 1017.6 |
| 20260901171847 | 30 | 160 | 4.8 | 9.7 | 0.00 | 0.00 | 0.00 | 52 | 1017.8 |
| 20260901171346 | 29 | 230 | 1.6 | 4.8 | 0.00 | 0.00 | 0.00 | 52 | 1017.5 |
| 20260901170845 | 29 | 211 | 4.8 | 4.8 | 0.00 | 0.00 | 0.00 | 52 | 1017.6 |
| 20260901170340 | 29 | 195 | 4.8 | 9.7 | 0.00 | 0.00 | 0.00 | 54 | 1017.7 |
| 20260901165834 | 29 | 196 | 6.4 | 8.0 | 0.00 | 0.00 | 0.00 | 55 | 1017.6 |
| 20260901165328 | 29 | 237 | 3.2 | 4.8 | 0.00 | 0.00 | 0.00 | 55 | 1017.7 |
| 20260901164825 | 29 | 226 | 3.2 | 4.8 | 0.00 | 0.00 | 0.00 | 56 | 1017.6 |
| 20260901164320 | 29 | 121 | 0.0 | 3.2 | 0.00 | 0.00 | 0.00 | 57 | 1017.5 |
| 20260901163814 | 28 | 208 | 1.6 | 3.2 | 0.00 | 0.00 | 0.00 | 56 | 1017.6 |
| 20260901163309 | 28 | 112 | 1.6 | 3.2 | 0.00 | 0.00 | 0.00 | 58 | 1017.9 |
| 20260901162803 | 28 | 175 | 1.6 | 3.2 | 0.00 | 0.00 | 0.00 | 58 | 1017.7 |
| 20260901162306 | 28 | 170 | 0.0 | 1.6 | 0.00 | 0.00 | 0.00 | 58 | 1017.5 |
| 20260901161802 | 27 | 114 | 0.0 | 3.2 | 0.00 | 0.00 | 0.00 | 60 | 1017.4 |
| 20260901161256 | 28 | 202 | 1.6 | 4.8 | 0.00 | 0.00 | 0.00 | 58 | 1017.3 |
| 20260901160752 | 27 | 136 | 0.0 | 1.6 | 0.00 | 0.00 | 0.00 | 61 | 1017.5 |
| 20260901160248 | 27 | 103 | 0.0 | 3.2 | 0.00 | 0.00 | 0.00 | 63 | 1017.5 |
| 20260901155747 | 26 | 191 | 4.8 | 8.0 | 0.00 | 0.00 | 0.00 | 63 | 1017.7 |
| 20260901155242 | 26 | 153 | 1.6 | 1.6 | 0.00 | 0.00 | 0.00 | 65 | 1017.5 |
| 20260901154738 | 26 | 156 | 1.6 | 3.2 | 0.00 | 0.00 | 0.00 | 64 | 1017.6 |
| 20260901154232 | 26 | 241 | 4.8 | 8.0 | 0.00 | 0.00 | 0.00 | 64 | 1017.8 |
| 20260901153728 | 26 | 202 | 6.4 | 9.7 | 0.00 | 0.00 | 0.00 | 64 | 1017.8 |
| 20260901153227 | 26 | 117 | 4.8 | 4.8 | 0.00 | 0.00 | 0.00 | 64 | 1017.7 |
| 20260901152721 | 26 | 166 | 3.2 | 8.0 | 0.00 | 0.00 | 0.00 | 65 | 1017.8 |
| 20260901152220 | 25 | 32 | 1.6 | 3.2 | 0.00 | 0.00 | 0.00 | 65 | 1017.8 |
| 20260901151715 | 25 | 220 | 3.2 | 4.8 | 0.00 | 0.00 | 0.00 | 66 | 1017.9 |
| 20260901151215 | 25 | 137 | 1.6 | 4.8 | 0.00 | 0.00 | 0.00 | 67 | 1017.7 |
| 20260901150709 | 25 | 150 | 3.2 | 4.8 | 0.00 | 0.00 | 0.00 | 69 | 1017.8 |
| 20260901150207 | 25 | 119 | 0.0 | 4.8 | 0.00 | 0.00 | 0.00 | 73 | 1017.9 |
| 20260901145705 | 25 | 150 | 1.6 | 3.2 | 0.00 | 0.00 | 0.00 | 74 | 1017.9 |
| 20260901145200 | 24 | 197 | 3.2 | 4.8 | 0.00 | 0.00 | 0.00 | 73 | 1017.7 |
| 20260901144655 | 24 | 198 | 1.6 | 3.2 | 0.00 | 0.00 | 0.00 | 74 | 1018.0 |
| 20260901144150 | 23 | 168 | 3.2 | 4.8 | 0.00 | 0.00 | 0.00 | 75 | 1018.0 |
| 20260901143645 | 23 | 251 | 4.8 | 4.8 | 0.00 | 0.00 | 0.00 | 75 | 1017.9 |
| 20260901143142 | 23 | 288 | 1.6 | 8.0 | 0.00 | 0.00 | 0.00 | 75 | 1017.9 |
| 20260901142638 | 23 | 236 | 4.8 | 8.0 | 0.00 | 0.00 | 0.00 | 77 | 1018.0 |
| 20260901142137 | 23 | 168 | 4.8 | 8.0 | 0.00 | 0.00 | 0.00 | 77 | 1017.9 |
| 20260901141632 | 23 | 173 | 1.6 | 4.8 | 0.00 | 0.00 | 0.00 | 78 | 1018.1 |
| 20260901141131 | 23 | 159 | 1.6 | 3.2 | 0.00 | 0.00 | 0.00 | 80 | 1018.0 |
| 20260901140630 | 23 | 210 | 3.2 | 4.8 | 0.00 | 0.00 | 0.00 | 79 | 1018.1 |
| 20260901140129 | 23 | 107 | 0.0 | 4.8 | 0.00 | 0.00 | 0.00 | 80 | 1017.9 |
| 20260901135624 | 22 | 99 | 1.6 | 1.6 | 0.00 | 0.00 | 0.00 | 82 | 1018.0 |
| 20260901135119 | 22 | 116 | 1.6 | 3.2 | 0.00 | 0.00 | 0.00 | 83 | 1017.9 |
| 20260901134615 | 22 | 133 | 1.6 | 3.2 | 0.00 | 0.00 | 0.00 | 84 | 1018.1 |
| 20260901134110 | 22 | 130 | 0.0 | 3.2 | 0.00 | 0.00 | 0.00 | 85 | 1018.0 |
| 20260901133609 | 21 | 171 | 1.6 | 3.2 | 0.00 | 0.00 | 0.00 | 86 | 1018.0 |
| 20260901133108 | 21 | 214 | 0.0 | 3.2 | 0.00 | 0.00 | 0.00 | 88 | 1018.0 |
| 20260901132603 | 21 | 188 | 0.0 | 1.6 | 0.00 | 0.00 | 0.00 | 88 | 1017.9 |
| 20260901132057 | 21 | 222 | 1.6 | 3.2 | 0.00 | 0.00 | 0.00 | 87 | 1017.9 |
| 20260901131556 | 21 | 196 | 0.0 | 3.2 | 0.00 | 0.00 | 0.00 | 88 | 1018.0 |
| 20260901131051 | 20 | 233 | 4.8 | 4.8 | 0.00 | 0.00 | 0.00 | 90 | 1017.9 |
| 20260901130546 | 20 | 245 | 1.6 | 1.6 | 0.00 | 0.00 | 0.00 | 93 | 1017.8 |
| 20260901130044 | 20 | 198 | 0.0 | 0.0 | 0.00 | 0.00 | 0.00 | 94 | 1017.7 |
| 20260901125543 | 19 | 205 | 0.0 | 0.0 | 0.00 | 0.00 | 0.00 | 95 | 1017.9 |
| 20260901125039 | 19 | 218 | 0.0 | 0.0 | 0.00 | 0.00 | 0.00 | 95 | 1017.9 |
| 20260901124538 | 19 | 211 | 0.0 | 1.6 | 0.00 | 0.00 | 0.00 | 96 | 1017.9 |
| 20260901124033 | 19 | 204 | 0.0 | 0.0 | 0.00 | 0.00 | 0.00 | 96 | 1017.7 |
| 20260901123528 | 18 | 219 | 1.6 | 1.6 | 0.00 | 0.00 | 0.00 | 96 | 1017.8 |
| 20260901123028 | 18 | 188 | 0.0 | 1.6 | 0.00 | 0.00 | 0.00 | 97 | 1017.7 |
| 20260901122526 | 18 | 194 | 0.0 | 3.2 | 0.00 | 0.00 | 0.00 | 97 | 1017.6 |
| 20260901122025 | 18 | 197 | 0.0 | 1.6 | 0.00 | 0.00 | 0.00 | 97 | 1017.6 |
| 20260901121520 | 18 | 248 | 0.0 | 0.0 | 0.00 | 0.00 | 0.00 | 97 | 1017.7 |
| 20260901121016 | 18 | 204 | 0.0 | 1.6 | 0.00 | 0.00 | 0.00 | 97 | 1017.5 |
| 20260901120515 | 18 | 221 | 0.0 | 0.0 | 0.00 | 0.00 | 0.00 | 97 | 1017.6 |
| 20260901120011 | 18 | 194 | 0.0 | 0.0 | 0.00 | 0.00 | 0.00 | 97 | 1017.4 |
| 20260901115506 | 18 | 214 | 1.6 | 1.6 | 0.00 | 0.00 | 0.00 | 97 | 1017.5 |
| 20260901115003 | 18 | 230 | 0.0 | 1.6 | 0.00 | 0.00 | 0.00 | 97 | 1017.4 |
| 20260901114459 | 18 | 244 | 1.6 | 1.6 | 0.00 | 0.00 | 0.00 | 97 | 1017.3 |
| 20260901113956 | 18 | 226 | 0.0 | 0.0 | 0.00 | 0.00 | 0.00 | 97 | 1017.3 |
| 20260901113456 | 18 | 214 | 0.0 | 0.0 | 0.00 | 0.00 | 0.00 | 96 | 1017.1 |
| 20260901112951 | 18 | 213 | 0.0 | 0.0 | 0.00 | 0.00 | 0.00 | 96 | 1016.9 |
| 20260901112446 | 18 | 264 | 0.0 | 1.6 | 0.00 | 0.00 | 0.00 | 96 | 1016.9 |
| 20260901111941 | 18 | 192 | 0.0 | 0.0 | 0.00 | 0.00 | 0.00 | 96 | 1016.9 |
| 20260901111440 | 18 | 170 | 1.6 | 1.6 | 0.00 | 0.00 | 0.00 | 96 | 1017.0 |
| 20260901110938 | 18 | 212 | 0.0 | 0.0 | 0.00 | 0.00 | 0.00 | 96 | 1016.6 |
| 20260901110434 | 18 | 206 | 0.0 | 0.0 | 0.00 | 0.00 | 0.00 | 97 | 1016.8 |
| 20260901105931 | 18 | 208 | 0.0 | 0.0 | 0.00 | 0.00 | 0.00 | 97 | 1016.6 |
| 20260901105426 | 18 | 197 | 0.0 | 0.0 | 0.00 | 0.00 | 0.00 | 97 | 1016.4 |
| 20260901104921 | 18 | 196 | 0.0 | 0.0 | 0.00 | 0.00 | 0.00 | 97 | 1016.6 |
| 20260901104416 | 18 | 212 | 0.0 | 0.0 | 0.00 | 0.00 | 0.00 | 96 | 1016.5 |
| 20260901103912 | 18 | 219 | 0.0 | 0.0 | 0.00 | 0.00 | 0.00 | 96 | 1016.4 |
| 20260901103412 | 18 | 227 | 0.0 | 0.0 | 0.00 | 0.00 | 0.00 | 96 | 1016.4 |
| 20260901102907 | 18 | 236 | 0.0 | 0.0 | 0.00 | 0.00 | 0.00 | 96 | 1016.4 |
| 20260901102401 | 18 | 250 | 0.0 | 0.0 | 0.00 | 0.00 | 0.00 | 96 | 1016.5 |
| 20260901101857 | 18 | 210 | 0.0 | 0.0 | 0.00 | 0.00 | 0.00 | 96 | 1016.7 |
| 20260901101357 | 18 | 222 | 0.0 | 0.0 | 0.00 | 0.00 | 0.00 | 97 | 1016.6 |
| 20260901100856 | 18 | 223 | 0.0 | 0.0 | 0.00 | 0.00 | 0.00 | 97 | 1016.7 |
| 20260901100351 | 18 | 221 | 0.0 | 0.0 | 0.00 | 0.00 | 0.00 | 97 | 1016.7 |